sat.trackr.live / text

‹ back to catalog

JILIN-1 GAOFEN 3D29

NORAD 52446 · 2022-048D

PAYLOAD ACTIVE UNKNOWN

§ Identity

Operator
Country
PRC
Launch date
2022-05-05
Launch site
TAISC
Launch vehicle
Mass (kg)
RCS (m²)

External: N2YO · Heavens-Above · Gunter

§ Orbital elements

Epoch: 2026-05-25T04:14:00.827808Z

Period
91.71 min
Inclination
97.5686°
Eccentricity
0.0002482
Mean motion
15.70233475 rev/d
Perigee alt
356.6 km
Apogee alt
359.9 km
Semi-major
6,736.4 km
B*
8.0755e-4
RAAN
257.4794°
Arg perigee
139.2715°
Mean anomaly
220.8733°
Rev number
22,588

§ Raw data

JILIN-1 GAOFEN 3D291 52446U 22048D   26145.17639847  .00098710  00000+0  80755-3 0  99922 52446  97.5686 257.4794 0002482 139.2715 220.8733 15.70233475225883

JSON: /api/v1/satellites/52446 · /tle

For live sub-satellite position, see the globe view (requires WebGL).

§ Visibility from observer

Set your observer location to see the next 7 days of passes ≥ 10°. The values pass through the URL so the page stays shareable.

No JS? Fill the form by hand. The geolocation button needs JavaScript.